Location: Boitzum
(52.1496°N, 9.6943°E)
Time: 01:42:37
(UTC+00:00)

Cosmos 2074 Rocket - Pass Details

Date: 20 April 2026
Orbit: 967 x 984 km, 82.9° (Epoch: 19 May)

Event Time Altitude Azimuth Distance (km) Brightness Sun altitude
Rises 02:28:04 0° 356° (N) 3,705 7.6 -14.7°
Reaches altitude 10° 02:32:31 10° 25° (NNE) 2,753 7.5 -14.2°
Maximum altitude 02:35:02 12° 49° (NE) 2,574 7.6 -13.9°
Drops below altitude 10° 02:37:33 10° 73° (ENE) 2,748 7.5 -13.6°
Sets 02:41:57 0° 102° (ESE) 3,690 7.6 -13.0°
